STARLINK-5739, 55571

Orbit data source: Space-Track

STARLINK-5739, 55571 is a payload satellite owned by SpaceX/Seattle (US) in LEO that was launched on Sun, 12 Feb 2023 UTC via an FALCON 9 launch vehicle from the Air Force Eastern Test Range (AFETR). Payload-class satellites include a variety of spacecraft equipped with specific instruments for various scientific and technological missions. These include communications satellites like Starlink; space stations such as the ISS; scientific satellites like the Hubble; Earth observation satellites from companies like Planet Labs, Umbra, and HawkEye 360; GPS; miniature CubeSats for education and research; and military/defense satellites.

Loading next visibility...
Identifier
55571, 2023-020C
Orbit
LEO
Country
Flag of USUS
Related business
Manufacturer
SpaceX/Seattle
Mission
Operational Commercial Communications
Bus & Motor
STARLINK, Unknown motor
Mass
305 kg wet, ~290 kg dry
Launch date (UTC)
2023-02-12 (3 years ago)
Launch vehicle
FALCON 9
Launch site
Air Force Eastern Test Range (AFETR)
Object type
Payload
Rocket body
Debris
Shape & HBR
Box + 1 Pan, 10.1 m
Radar Cross Section
13.562 m², Large (>1 m²)

Expand to show TLE details & history
Last TLE update: 17 hours ago

TLE from 17 hours ago
0 STARLINK-5739
1 55571U 23020C   26061.63024995  .00000598  00000-0  59348-4 0  9998
2 55571  43.0059  43.3207 0001254 272.2732  87.7967 15.02533544167855
Epoch: 2026-03-02T15:07Z
TLE epoch observation values (Epoch: 2026-03-02T15:07:33.595Z)
Latitude
-0.00001°
Longitude
16.0098°
Altitude
558.832 km
Speed
7.584 km/s
True Right ascension
02h 53m 16s
True Declination
0° 00' 00"
Sunlit
Object was in daylight at epoch
Visualization orbit readout
Latitude
Unknown
Longitude
Unknown
Altitude
Unknown
Speed
Unknown
Apparent Right ascension
Unknown
Apparent Declination
Unknown
Sunlit
N/A
Visualization observer readout
Local Sidereal Time
11:22:15
Azimuth
Unknown
Elevation
Unknown
Doppler factor
Unknown
Orbital elements
Apogee altitude
561.88 km
Perigee altitude
560.14 km
Semi-major axis
6,939.147 km
Eccentricity
0.00013
Inclination
43.0059°
RAAN
43.3207°
Arg. of periapsis
272.2732°
True anomaly
87.81106°
Mean anomaly
87.7967°
Eccentric anomaly
87.80388°
Mean motion
3.75478 °/min
Orbital period
95.88 mins
BSTAR
0.000059348
Loading maneuver chart data...
Computing Atmospheric mass density...
Loading historical data...
Loading historical data...
Loading historical data...
Loading historical data...
Loading historical data...
Loading historical data...
Loading historical data...

Documentation

Showing up to 5 results
|